Location: Houhaj�rvi
(61.2833°N, 23.0000°E)
Time: 23:25:16
(UTC+00:00)

Landsat 7 - Pass Details

Date: 27 February 2020
Orbit: 701 x 703 km, 98.1° (Epoch: 05 April)

Event Time Altitude Azimuth Distance (km) Brightness Sun altitude
Exits shadow 19:16:10 86° 121° (ESE) 715 3.7 -25.2°
Maximum altitude 19:16:15 87° 71° (ENE) 714 3.7 -25.2°
Drops below altitude 10° 19:21:04 10° 343° (NNW) 2,187 7.0 -25.7°
Sets 19:23:20 0° 343° (NNW) 3,110 7.9 -25.9°
